Wind_Speed
13 14 14 15 15 14 14 13 12 10 9 10 10 10 10 9 8 7 7 9 9 9 8 8 7 7 6 6 6 6 7 7 8 9 10 11 11 12 13 13 15 16 16 17
13 14 14 15 14 13 12 11 11 10 10 9 9 9 8 7 6 7 7 8 9 9 9 8 8 7 7 7 7 7 7 8 9 9 10 11 12 12 13 14 15 16 16 17
13 13 14 14 13 12 11 11 11 10 10 9 8 7 7 6 6 6 7 8 8 8 8 8 8 8 7 7 8 7 7 8 9 10 10 11 12 12 13 14 15 16 17 17
14 14 13 13 12 12 11 11 10 9 9 9 8 7 6 6 5 6 6 7 8 8 8 8 8 8 7 8 8 8 8 9 9 10 10 11 12 12 13 14 15 16 17 17
13 13 12 11 11 11 11 11 10 10 10 9 8 7 6 6 5 5 5 6 7 7 8 8 8 7 7 8 8 9 9 9 10 10 10 11 11 12 13 14 14 16 17 17
12 12 11 11 11 11 11 11 10 10 10 8 8 7 6 5 4 5 5 5 6 6 7 7 7 7 8 8 8 9 9 10 10 10 10 11 11 12 13 14 14 15 16 17
12 11 11 11 12 11 11 11 10 10 9 8 8 7 6 4 4 4 4 5 6 6 6 7 7 7 8 8 8 8 9 10 10 10 10 11 11 12 13 14 14 15 16 17
12 12 12 12 12 12 11 11 11 9 8 7 7 6 5 4 4 4 4 5 5 6 6 7 7 8 8 8 8 9 9 10 10 10 11 11 11 12 13 13 14 15 15 16
13 12 12 12 12 11 10 10 9 9 7 7 6 5 4 4 3 3 4 4 5 5 6 6 7 7 8 9 9 9 10 10 10 11 11 11 12 12 13 13 14 14 15 15
12 12 12 11 11 10 9 9 9 8 7 7 6 5 4 3 2 2 3 4 4 5 6 6 7 8 9 10 10 10 10 11 11 11 11 12 12 12 13 13 14 14 15 15
10 10 10 9 9 9 8 8 7 6 7 7 5 5 4 3 3 3 3 4 5 5 6 7 7 9 10 11 11 11 12 12 12 12 12 13 13 13 13 14 14 14 14 15
9 9 8 8 7 7 7 6 6 6 5 5 5 4 4 4 4 3 4 4 5 5 6 7 8 9 10 11 12 12 13 13 13 13 13 14 14 14 14 14 14 14 15 15
8 8 7 6 6 6 5 5 5 4 4 4 5 5 4 4 4 4 4 5 5 6 7 8 9 10 11 11 12 13 13 13 13 14 14 15 15 15 15 15 15 15 15 15
6 6 6 6 6 5 5 5 4 4 4 4 4 5 5 5 6 6 6 6 7 7 8 9 10 11 11 12 13 13 13 14 14 14 15 15 16 16 16 16 16 15 15 15
5 5 5 5 6 5 5 5 5 5 5 5 6 7 7 7 7 8 8 8 9 9 10 11 12 12 13 13 14 14 14 15 15 15 16 16 17 17 17 17 17 16 16 16
6 6 5 5 5 5 5 5 5 6 6 6 7 8 8 9 9 9 10 10 10 11 12 13 13 14 14 15 15 15 16 16 16 17 17 18 18 18 18 18 18 18 17 17
7 6 6 6 6 6 5 6 6 7 7 8 9 9 10 11 11 11 11 12 13 13 14 14 15 15 16 17 17 17 17 18 18 19 19 19 19 19 19 19 19 19 19 18
7 7 7 7 7 7 7 7 8 9 9 10 11 11 12 12 13 13 14 14 15 16 16 17 17 18 19 19 20 20 20 20 20 21 21 21 21 21 21 21 21 21 20 20
9 9 9 9 9 10 10 10 10 11 11 11 12 13 14 14 15 16 16 17 18 19 19 19 20 21 21 22 22 23 23 23 23 23 23 23 23 23 23 23 23 23 23 22
11 11 11 11 12 12 12 12 13 13 13 13 14 14 15 17 18 18 19 20 20 21 22 22 23 24 24 25 25 26 26 26 26 26 26 26 26 26 26 25 25 26 25 25
13 13 13 13 14 14 14 14 15 15 15 15 16 16 17 19 20 21 22 23 24 24 24 25 26 27 27 28 28 28 29 29 29 29 29 29 29 29 29 29 28 28 28 28
14 15 15 16 16 16 16 17 17 17 17 18 18 19 20 21 22 23 24 25 26 27 27 28 29 30 30 31 31 32 32 32 33 33 33 33 33 33 33 32 32 31 31 31
17 17 17 18 18 19 19 19 20 20 21 21 22 23 24 25 25 26 27 28 29 30 31 32 33 34 34 35 35 36 36 36 36 36 36 36 36 36 36 36 35 35 34 34
20 20 20 21 21 21 22 22 23 24 24 25 25 26 27 28 29 30 31 32 33 34 35 36 37 38 39 39 39 39 39 39 39 40 40 40 40 39 39 39 38 38 37 36
22 22 23 23 24 24 25 25 26 27 28 28 29 30 31 32 33 34 35 36 37 38 39 40 41 42 43 43 43 43 43 43 43 43 43 43 43 43 42 41 41 40 39 39
25 25 25 26 26 27 28 29 29 30 31 32 33 33 34 35 36 38 39 40 41 42 43 44 45 46 46 46 46 46 46 46 46 46 46 46 46 45 45 44 44 43 42 42
Wind_Direction
172 177 181 182 186 189 193 198 202 206 207 203 202 200 197 201 204 210 215 215 213 217 220 224 229 229 239 249 261 274 286 299 309 316 323 328 333 339 342 343 344 344 343 342
165 172 175 176 181 182 186 191 192 195 191 190 191 193 196 204 210 214 220 217 215 219 222 230 237 238 245 252 262 274 286 299 307 315 323 327 332 338 341 343 345 345 345 344
157 164 167 170 173 176 180 180 181 179 178 181 181 184 190 196 201 207 213 216 218 223 227 234 241 244 250 260 266 276 287 298 306 313 320 326 331 336 341 343 345 347 347 347
150 157 161 165 167 168 168 169 169 169 173 175 172 174 182 184 191 198 204 210 214 220 227 235 242 248 256 264 273 280 286 296 304 310 317 323 330 335 340 343 345 348 349 348
146 151 155 158 161 160 162 163 160 158 163 165 166 167 181 185 192 198 200 205 212 220 227 236 246 255 265 273 277 282 288 294 300 306 313 319 327 333 338 342 344 347 349 349
140 145 150 152 151 150 151 150 152 151 151 161 170 172 178 180 182 188 193 201 211 220 232 244 253 260 270 277 279 282 286 290 294 302 309 316 323 329 335 340 342 345 348 349
133 139 145 147 148 148 148 148 145 144 150 162 168 170 174 178 180 188 199 208 215 221 236 248 257 264 273 279 282 288 289 291 293 299 306 312 319 325 331 336 340 342 345 348
129 134 138 142 145 145 147 152 152 158 162 164 164 166 169 173 187 201 215 220 225 231 240 251 256 266 274 281 286 291 295 296 297 300 304 309 315 322 327 333 337 341 344 347
128 132 135 135 136 141 146 152 154 156 161 166 163 162 169 173 193 219 226 228 230 236 247 255 262 270 276 281 287 288 294 297 299 302 303 306 312 318 323 328 333 338 341 345
126 129 132 133 135 139 146 150 154 156 160 162 165 176 179 176 197 225 226 232 241 250 258 265 270 275 279 282 285 287 292 294 298 301 302 305 309 314 320 324 328 332 336 341
125 130 136 140 142 141 145 148 151 154 161 165 176 187 188 202 220 238 246 251 258 264 271 276 280 284 285 286 288 288 291 292 295 299 301 304 307 310 314 319 324 327 331 335
129 131 139 145 149 151 151 151 157 166 170 178 194 209 208 220 232 248 258 263 271 275 281 287 290 293 294 293 292 292 293 293 294 297 299 300 303 306 309 314 318 322 326 330
140 141 145 154 162 166 169 173 179 182 185 193 213 226 232 245 254 261 267 271 278 281 285 290 293 295 296 297 296 295 294 294 295 296 297 298 300 302 304 308 312 316 320 324
151 158 166 180 188 190 196 201 205 208 211 224 235 245 250 260 268 272 273 277 282 286 289 293 294 296 296 296 295 296 296 295 296 297 298 297 297 298 300 302 306 310 314 317
174 180 188 196 202 208 213 217 222 229 236 245 248 254 259 265 270 273 276 279 282 286 290 292 294 296 296 297 295 294 295 296 297 298 298 298 297 297 298 299 301 303 307 310
194 197 202 210 217 220 224 231 237 243 249 255 259 261 263 265 269 272 276 280 282 284 287 290 292 294 295 297 296 294 295 296 296 297 297 297 297 297 297 297 298 299 301 303
210 213 220 228 233 235 241 246 250 255 258 261 264 267 268 269 273 274 276 280 283 285 287 288 290 292 294 295 297 297 296 295 296 296 296 295 295 296 296 295 296 297 297 298
225 229 234 240 245 250 256 258 262 263 265 267 268 270 272 274 275 277 278 281 283 285 286 287 289 291 293 293 294 294 295 295 295 295 295 295 294 294 293 292 293 293 294 295
238 240 243 248 255 259 263 266 268 270 272 273 273 274 275 277 277 278 280 281 284 285 285 285 286 289 291 291 291 292 292 292 292 293 293 293 293 292 291 290 290 290 290 291
245 249 252 256 260 265 267 269 272 274 275 277 276 276 277 280 281 281 282 283 284 285 285 285 286 287 288 290 290 290 291 291 290 290 290 290 289 289 288 287 287 287 287 288
250 253 256 259 263 267 271 273 275 276 278 277 277 278 279 280 282 283 282 283 284 285 285 286 287 288 289 290 290 290 289 289 289 288 287 287 287 286 285 284 285 285 285 285
254 256 258 261 264 269 272 274 276 278 278 278 279 279 281 282 283 284 284 284 284 284 285 285 287 288 288 289 289 288 288 288 287 287 287 286 286 285 284 282 282 282 283 283
258 260 262 264 267 270 272 275 277 278 279 279 280 281 281 282 283 284 285 285 285 285 285 286 286 287 287 287 287 287 287 287 287 286 286 285 284 284 282 281 281 281 281 281
261 263 264 267 269 272 274 276 278 279 280 280 281 283 283 283 283 284 284 285 285 285 285 285 285 286 286 286 286 286 285 285 286 285 285 285 284 283 281 280 280 279 278 277
264 265 267 270 272 274 277 278 279 280 281 281 282 283 284 284 284 284 284 285 286 286 286 285 285 285 285 285 285 285 284 285 285 285 285 285 284 283 282 279 277 276 275 274
265 267 270 272 274 276 277 279 281 282 283 283 284 284 284 285 286 286 287 287 287 287 287 286 286 285 285 285 285 285 285 284 284 284 284 284 284 283 281 279 276 274 273 273
Height
5804 5809 5812 5815 5818 5821 5824 5827 5829 5832 5834 5835 5837 5839 5841 5843 5845 5846 5848 5849 5850 5852 5853 5854 5855 5856 5856 5857 5857 5857 5856 5855 5854 5853 5851 5849 5847 5844 5841 5838 5835 5831 5828 5825
5805 5808 5811 5814 5817 5820 5823 5826 5829 5831 5833 5835 5837 5839 5841 5842 5844 5845 5847 5848 5849 5851 5852 5853 5854 5855 5855 5855 5856 5855 5855 5854 5853 5851 5850 5848 5845 5843 5840 5837 5834 5830 5827 5823
5806 5809 5811 5815 5817 5820 5823 5826 5828 5830 5833 5835 5837 5839 5841 5842 5843 5844 5845 5847 5848 5850 5851 5852 5853 5854 5854 5854 5854 5854 5853 5853 5852 5850 5848 5847 5844 5842 5839 5836 5832 5829 5825 5822
5807 5810 5812 5815 5818 5820 5823 5826 5828 5830 5833 5835 5838 5840 5841 5841 5842 5843 5844 5846 5847 5848 5850 5851 5852 5852 5853 5853 5853 5852 5852 5851 5850 5849 5847 5845 5843 5841 5838 5835 5831 5828 5824 5821
5809 5811 5814 5816 5819 5821 5824 5826 5828 5831 5833 5836 5838 5840 5841 5841 5842 5843 5844 5845 5846 5848 5849 5850 5851 5851 5851 5851 5851 5851 5851 5850 5849 5847 5846 5844 5842 5839 5836 5833 5830 5827 5823 5820
5811 5813 5815 5817 5820 5822 5825 5827 5829 5832 5834 5837 5838 5840 5841 5841 5842 5843 5843 5844 5846 5847 5848 5849 5849 5850 5850 5850 5850 5849 5849 5848 5847 5845 5844 5842 5840 5838 5835 5832 5829 5826 5822 5819
5813 5815 5817 5819 5821 5824 5826 5829 5832 5833 5835 5837 5838 5839 5841 5840 5841 5842 5843 5844 5845 5846 5847 5847 5848 5849 5849 5848 5848 5847 5847 5846 5845 5843 5842 5840 5838 5836 5834 5831 5828 5825 5821 5818
5816 5818 5819 5821 5823 5825 5827 5830 5833 5836 5836 5837 5838 5839 5841 5840 5841 5842 5842 5843 5844 5845 5846 5846 5847 5847 5847 5847 5846 5846 5845 5844 5843 5841 5840 5838 5837 5834 5832 5829 5826 5823 5820 5817
5818 5820 5821 5823 5824 5826 5828 5830 5833 5835 5836 5838 5838 5839 5840 5840 5841 5841 5842 5842 5843 5844 5844 5845 5845 5845 5845 5845 5844 5843 5843 5842 5841 5839 5838 5836 5835 5833 5830 5828 5825 5822 5819 5816
5820 5822 5823 5825 5826 5828 5830 5831 5833 5835 5836 5838 5839 5839 5840 5840 5840 5841 5841 5842 5842 5842 5843 5843 5843 5843 5843 5842 5842 5841 5840 5839 5838 5837 5836 5834 5833 5831 5828 5826 5824 5821 5818 5815
5822 5824 5826 5827 5828 5829 5831 5833 5833 5835 5836 5838 5839 5841 5839 5839 5840 5840 5840 5841 5841 5841 5841 5841 5841 5841 5840 5840 5839 5838 5838 5837 5836 5834 5833 5832 5830 5828 5827 5824 5822 5820 5817 5814
5823 5825 5826 5828 5829 5830 5831 5832 5834 5835 5836 5837 5838 5841 5838 5838 5839 5839 5839 5839 5839 5839 5839 5839 5839 5839 5838 5837 5837 5836 5835 5834 5833 5832 5830 5829 5828 5826 5824 5822 5820 5818 5815 5813
5824 5826 5827 5829 5831 5831 5831 5832 5833 5834 5835 5836 5837 5840 5837 5837 5838 5838 5838 5838 5838 5838 5838 5837 5837 5836 5836 5835 5834 5833 5832 5831 5830 5828 5827 5826 5824 5823 5821 5819 5818 5816 5813 5811
5825 5826 5828 5830 5829 5830 5831 5832 5832 5833 5834 5835 5836 5836 5836 5836 5836 5836 5836 5836 5836 5836 5836 5835 5834 5834 5833 5832 5831 5830 5829 5828 5827 5825 5824 5822 5821 5819 5818 5816 5814 5813 5811 5809
5825 5826 5826 5827 5828 5829 5830 5830 5831 5832 5833 5833 5834 5834 5834 5834 5834 5834 5834 5834 5833 5833 5833 5832 5832 5831 5830 5829 5828 5827 5825 5824 5823 5822 5820 5819 5817 5816 5814 5813 5811 5809 5808 5806
5824 5825 5826 5826 5827 5827 5828 5829 5829 5830 5830 5831 5831 5832 5831 5831 5831 5831 5831 5831 5831 5830 5830 5829 5829 5828 5827 5825 5824 5823 5822 5820 5819 5818 5816 5815 5813 5812 5810 5809 5807 5806 5804 5802
5823 5824 5825 5825 5825 5826 5827 5827 5827 5828 5828 5828 5828 5829 5828 5828 5828 5828 5828 5827 5827 5827 5826 5826 5825 5824 5823 5821 5820 5819 5817 5816 5815 5814 5812 5811 5809 5808 5806 5805 5803 5802 5800 5798
5821 5822 5822 5823 5824 5824 5827 5825 5825 5825 5825 5825 5825 5824 5824 5824 5824 5824 5823 5823 5823 5822 5822 5821 5820 5819 5818 5817 5815 5814 5813 5811 5810 5809 5807 5806 5804 5803 5801 5800 5798 5797 5795 5794
5818 5819 5820 5821 5821 5821 5822 5821 5821 5821 5821 5821 5820 5820 5820 5819 5819 5819 5819 5818 5818 5817 5817 5816 5815 5814 5813 5811 5810 5808 5807 5806 5804 5803 5801 5800 5799 5797 5796 5794 5793 5791 5790 5788
5815 5816 5817 5817 5817 5818 5819 5818 5817 5818 5817 5817 5816 5816 5815 5815 5814 5814 5813 5812 5812 5811 5810 5809 5808 5807 5806 5805 5803 5802 5800 5799 5797 5796 5795 5793 5792 5790 5789 5787 5786 5785 5783 5782
5811 5812 5812 5812 5812 5813 5813 5812 5813 5814 5813 5812 5811 5811 5810 5809 5809 5808 5807 5806 5805 5804 5803 5802 5801 5800 5799 5797 5796 5794 5793 5791 5790 5788 5787 5785 5783 5782 5780 5779 5778 5777 5776 5774
5807 5807 5807 5807 5808 5809 5807 5807 5807 5807 5806 5805 5805 5805 5804 5803 5802 5801 5800 5799 5798 5797 5796 5795 5793 5792 5790 5789 5787 5785 5783 5782 5780 5778 5777 5776 5774 5772 5771 5770 5769 5767 5766 5765
5801 5802 5802 5803 5804 5802 5801 5801 5800 5800 5799 5799 5798 5798 5797 5796 5795 5794 5793 5791 5790 5788 5787 5786 5784 5783 5781 5779 5777 5775 5773 5771 5769 5767 5766 5764 5763 5761 5760 5759 5758 5757 5755 5754
5795 5795 5795 5795 5795 5795 5795 5794 5794 5793 5792 5792 5791 5790 5789 5788 5786 5785 5784 5782 5781 5779 5777 5776 5774 5772 5770 5767 5765 5763 5761 5759 5757 5755 5753 5751 5750 5748 5747 5746 5745 5744 5743 5742
5788 5788 5788 5788 5788 5788 5787 5786 5786 5785 5784 5783 5782 5781 5780 5778 5777 5775 5774 5772 5770 5768 5766 5764 5762 5759 5757 5755 5752 5750 5748 5746 5744 5742 5740 5738 5736 5735 5733 5732 5731 5731 5730 5729
5780 5780 5781 5781 5780 5779 5779 5778 5777 5776 5775 5774 5773 5771 5770 5768 5766 5764 5762 5760 5758 5756 5753 5750 5748 5745 5743 5740 5738 5735 5733 5731 5729 5727 5725 5723 5721 5719 5718 5717 5716 5716 5716 5715